AXY303 YSSY-NZAA

Flight info

Callsign AXY303
Flight time N/A
Altitude 39000
Route KEVIN7/16L EVONN L521 LUNBI
Aircraft A343/H-SDE2E3FGHIJ4J5M1RWXY/LB1D1

Departure

Time 2026-05-05 07:00
Airport Sydney Kingsford Smith International Airport (YSSY)

Arrival

Time N/A
Airport Auckland International Airport (NZAA)
Time Latitude Longitude Altitude Speed Heading
2026-05-05 06:15 -33.93403 151.16777 29 ft 0 kts 251°
2026-05-05 06:39 -33.93399 151.16793 27 ft 4 kts 248°
2026-05-05 06:39 -33.93387 151.16822 31 ft 4 kts 239°
2026-05-05 06:40 -33.93372 151.16849 31 ft 4 kts 230°
2026-05-05 06:40 -33.93354 151.16872 31 ft 4 kts 219°
2026-05-05 06:40 -33.93332 151.16891 31 ft 4 kts 206°
2026-05-05 06:40 -33.93319 151.16898 31 ft 0 kts 199°
2026-05-05 06:41 -33.93318 151.16898 31 ft 0 kts 199°
2026-05-05 06:42 -33.93318 151.16899 31 ft 0 kts 199°
2026-05-05 06:45 -33.93325 151.16896 30 ft 1 kts 198°
2026-05-05 06:45 -33.93341 151.16892 30 ft 5 kts 191°
2026-05-05 06:46 -33.93397 151.16894 29 ft 11 kts 172°
2026-05-05 06:46 -33.93483 151.16919 28 ft 13 kts 153°
2026-05-05 06:46 -33.93503 151.17009 26 ft 12 kts 79°
2026-05-05 06:46 -33.93513 151.17099 29 ft 10 kts 129°
2026-05-05 06:47 -33.93578 151.17123 30 ft 11 kts 167°
2026-05-05 06:47 -33.93654 151.17144 27 ft 12 kts 167°
2026-05-05 06:47 -33.93750 151.17166 25 ft 16 kts 168°
2026-05-05 06:47 -33.93864 151.17198 22 ft 15 kts 166°
2026-05-05 06:48 -33.93914 151.17211 21 ft 0 kts 168°
2026-05-05 06:49 -33.93919 151.17212 21 ft 0 kts 168°
2026-05-05 06:49 -33.93920 151.17213 26 ft 0 kts 168°
2026-05-05 06:50 -33.93938 151.17221 24 ft 5 kts 154°
2026-05-05 06:50 -33.93958 151.17271 26 ft 10 kts 92°
2026-05-05 06:50 -33.93934 151.17385 23 ft 18 kts 74°
2026-05-05 06:50 -33.93898 151.17529 27 ft 17 kts 73°
2026-05-05 06:51 -33.93870 151.17649 24 ft 11 kts 75°
2026-05-05 06:51 -33.93865 151.17744 25 ft 12 kts 111°
2026-05-05 06:51 -33.93939 151.17790 29 ft 13 kts 167°
2026-05-05 06:51 -33.94038 151.17817 27 ft 16 kts 168°
2026-05-05 06:52 -33.94153 151.17846 28 ft 17 kts 168°
2026-05-05 06:52 -33.94271 151.17876 29 ft 18 kts 167°
2026-05-05 06:52 -33.94395 151.17910 29 ft 19 kts 167°
2026-05-05 06:52 -33.94506 151.17882 27 ft 16 kts 189°
2026-05-05 06:53 -33.94612 151.17907 29 ft 15 kts 168°
2026-05-05 06:53 -33.94727 151.17936 32 ft 18 kts 168°
2026-05-05 06:53 -33.94853 151.17969 29 ft 19 kts 167°
2026-05-05 06:53 -33.94980 151.18004 28 ft 18 kts 168°
2026-05-05 06:54 -33.95080 151.18032 30 ft 13 kts 150°
2026-05-05 06:54 -33.95098 151.18129 29 ft 14 kts 80°
2026-05-05 06:54 -33.95076 151.18251 29 ft 16 kts 78°
2026-05-05 06:54 -33.95061 151.18337 29 ft 3 kts 78°
2026-05-05 06:55 -33.95055 151.18372 30 ft 6 kts 78°
2026-05-05 06:55 -33.95052 151.18393 30 ft 0 kts 78°
2026-05-05 06:57 -33.95051 151.18395 30 ft 1 kts 78°
2026-05-05 06:57 -33.95045 151.18427 30 ft 6 kts 77°
2026-05-05 06:57 -33.95032 151.18499 31 ft 12 kts 77°
2026-05-05 06:57 -33.95011 151.18613 30 ft 16 kts 77°
2026-05-05 06:58 -33.94987 151.18753 28 ft 17 kts 82°
2026-05-05 06:58 -33.95033 151.18849 27 ft 11 kts 158°
2026-05-05 06:58 -33.95051 151.18855 27 ft 0 kts 165°
2026-05-05 06:59 -33.95069 151.18861 27 ft 18 kts 165°
2026-05-05 06:59 -33.95509 151.18973 28 ft 109 kts 172°
2026-05-05 07:00 -33.96484 151.19231 56 ft 177 kts 167°
2026-05-05 07:00 -33.97798 151.19659 562 ft 212 kts 159°
2026-05-05 07:00 -33.99011 151.20916 1331 ft 249 kts 127°
2026-05-05 07:00 -33.99980 151.22705 2340 ft 259 kts 124°
2026-05-05 07:01 -34.00972 151.24448 3618 ft 243 kts 134°
2026-05-05 07:01 -34.02210 151.25897 4492 ft 254 kts 142°
2026-05-05 07:01 -34.03589 151.27285 5192 ft 263 kts 143°
2026-05-05 07:01 -34.05029 151.28695 6248 ft 269 kts 144°
2026-05-05 07:02 -34.06498 151.30131 7243 ft 275 kts 143°
2026-05-05 07:02 -34.07986 151.31586 8162 ft 283 kts 143°
2026-05-05 07:02 -34.09532 151.33099 9096 ft 290 kts 143°
2026-05-05 07:02 -34.11113 151.34651 10028 ft 297 kts 143°
2026-05-05 07:03 -34.12614 151.36423 10857 ft 307 kts 130°
2026-05-05 07:03 -34.13657 151.38695 11670 ft 317 kts 111°
2026-05-05 07:03 -34.14139 151.41386 12103 ft 340 kts 98°
2026-05-05 07:03 -34.14390 151.44315 12448 ft 361 kts 96°
2026-05-05 07:04 -34.14637 151.47420 12805 ft 381 kts 97°
2026-05-05 07:04 -34.14907 151.50648 13405 ft 392 kts 97°
2026-05-05 07:04 -34.15193 151.53951 14135 ft 398 kts 97°
2026-05-05 07:04 -34.15487 151.57296 14862 ft 403 kts 97°
2026-05-05 07:05 -34.15788 151.60684 15613 ft 408 kts 97°
2026-05-05 07:05 -34.16092 151.64100 16376 ft 411 kts 97°
2026-05-05 07:05 -34.16398 151.67552 17123 ft 415 kts 96°
2026-05-05 07:05 -34.16707 151.71030 17897 ft 419 kts 96°
2026-05-05 07:06 -34.17013 151.74488 18622 ft 422 kts 96°
2026-05-05 07:06 -34.17326 151.78028 19249 ft 427 kts 96°
2026-05-05 07:06 -34.17642 151.81618 19836 ft 433 kts 96°
2026-05-05 07:06 -34.17961 151.85252 20420 ft 438 kts 95°
2026-05-05 07:07 -34.18282 151.88927 20997 ft 443 kts 95°
2026-05-05 07:07 -34.18606 151.92647 21572 ft 448 kts 95°
2026-05-05 07:07 -34.18933 151.96405 22126 ft 453 kts 95°
2026-05-05 07:07 -34.19270 152.00214 22657 ft 459 kts 96°
2026-05-05 07:08 -34.19853 152.04027 23190 ft 464 kts 104°
2026-05-05 07:08 -34.20771 152.07779 23727 ft 469 kts 108°
2026-05-05 07:08 -34.21824 152.11535 24143 ft 474 kts 109°
2026-05-05 07:08 -34.22943 152.15301 24546 ft 479 kts 109°
2026-05-05 07:09 -34.24087 152.19092 24950 ft 483 kts 109°
2026-05-05 07:09 -34.25241 152.22934 25357 ft 488 kts 109°
2026-05-05 07:09 -34.26392 152.26809 25753 ft 492 kts 109°
2026-05-05 07:09 -34.27409 152.30276 26098 ft 496 kts 109°
2026-05-05 07:10 -34.28560 152.34231 26475 ft 500 kts 108°
2026-05-05 07:10 -34.29711 152.38211 26857 ft 504 kts 108°
2026-05-05 07:10 -34.30872 152.42236 27222 ft 508 kts 108°
2026-05-05 07:10 -34.32039 152.46294 27584 ft 512 kts 108°
2026-05-05 07:11 -34.33212 152.50376 27937 ft 516 kts 108°
2026-05-05 07:11 -34.34393 152.54489 28278 ft 520 kts 108°
2026-05-05 07:11 -34.35589 152.58661 28522 ft 526 kts 108°
2026-05-05 07:11 -34.36790 152.62858 28876 ft 530 kts 107°
2026-05-05 07:12 -34.37998 152.67082 29203 ft 533 kts 107°
2026-05-05 07:12 -34.39213 152.71337 29529 ft 537 kts 107°
2026-05-05 07:12 -34.40437 152.75629 29838 ft 540 kts 107°
2026-05-05 07:12 -34.41666 152.79944 30148 ft 544 kts 107°
2026-05-05 07:13 -34.42902 152.84288 30383 ft 548 kts 107°
2026-05-05 07:13 -34.44132 152.88619 30511 ft 554 kts 107°
2026-05-05 07:13 -34.45386 152.93044 30771 ft 557 kts 107°
2026-05-05 07:13 -34.46642 152.97478 31161 ft 556 kts 107°
2026-05-05 07:14 -34.47893 153.01903 31541 ft 556 kts 107°
2026-05-05 07:14 -34.49145 153.06341 31887 ft 556 kts 107°
2026-05-05 07:14 -34.50395 153.10778 32232 ft 556 kts 107°
2026-05-05 07:14 -34.51643 153.15216 32544 ft 557 kts 107°
2026-05-05 07:15 -34.52895 153.19676 32796 ft 560 kts 107°
2026-05-05 07:15 -34.54148 153.24149 33138 ft 560 kts 107°
2026-05-05 07:15 -34.55401 153.28624 33510 ft 559 kts 107°
2026-05-05 07:15 -34.56649 153.33091 33857 ft 559 kts 107°
2026-05-05 07:16 -34.57896 153.37564 34175 ft 559 kts 107°
2026-05-05 07:16 -34.59140 153.42030 34475 ft 559 kts 107°
2026-05-05 07:16 -34.60381 153.46491 34798 ft 558 kts 107°
2026-05-05 07:16 -34.61619 153.50948 35111 ft 557 kts 107°
2026-05-05 07:17 -34.62854 153.55405 35435 ft 556 kts 107°
2026-05-05 07:17 -34.64084 153.59844 35742 ft 555 kts 107°
2026-05-05 07:17 -34.65313 153.64293 36045 ft 554 kts 107°
2026-05-05 07:17 -34.66536 153.68722 36334 ft 553 kts 107°
2026-05-05 07:18 -34.67756 153.73153 36617 ft 553 kts 107°
2026-05-05 07:18 -34.68972 153.77577 36878 ft 553 kts 108°
2026-05-05 07:18 -34.70188 153.82008 37161 ft 552 kts 108°
2026-05-05 07:18 -34.71400 153.86430 37445 ft 551 kts 108°
2026-05-05 07:19 -34.72608 153.90844 37722 ft 550 kts 108°
2026-05-05 07:19 -34.73813 153.95256 37999 ft 550 kts 108°
2026-05-05 07:19 -34.75016 153.99666 38273 ft 549 kts 108°
2026-05-05 07:19 -34.76217 154.04076 38544 ft 548 kts 108°
2026-05-05 07:20 -34.77412 154.08473 38823 ft 547 kts 108°
2026-05-05 07:20 -34.78604 154.12864 39041 ft 546 kts 108°
2026-05-05 07:20 -34.79795 154.17258 39093 ft 549 kts 108°
2026-05-05 07:21 -34.82174 154.26058 39097 ft 546 kts 108°
2026-05-05 07:21 -34.84538 154.34830 39095 ft 545 kts 108°
2026-05-05 07:22 -34.86893 154.43600 39099 ft 545 kts 108°
2026-05-05 07:22 -34.88843 154.50883 39094 ft 544 kts 108°
2026-05-05 07:23 -34.91186 154.59659 39096 ft 544 kts 108°
2026-05-05 07:23 -34.93519 154.68429 39099 ft 544 kts 108°
2026-05-05 07:24 -34.95848 154.77212 39095 ft 544 kts 108°
2026-05-05 07:24 -34.98167 154.85986 39094 ft 544 kts 107°
2026-05-05 07:25 -35.00479 154.94761 39092 ft 544 kts 107°
2026-05-05 07:25 -35.02786 155.03544 39093 ft 544 kts 107°
2026-05-05 07:26 -35.05086 155.12334 39095 ft 544 kts 107°
2026-05-05 07:26 -35.07378 155.21125 39095 ft 544 kts 107°
2026-05-05 07:27 -35.09662 155.29912 39094 ft 542 kts 107°
2026-05-05 07:27 -35.11938 155.38699 39091 ft 542 kts 107°
2026-05-05 07:28 -35.14206 155.47482 39089 ft 542 kts 107°
2026-05-05 07:28 -35.16466 155.56268 39094 ft 542 kts 107°
2026-05-05 07:29 -35.18722 155.65064 39091 ft 542 kts 107°
2026-05-05 07:29 -35.20956 155.73804 39091 ft 541 kts 107°
2026-05-05 07:30 -35.23194 155.82593 39091 ft 541 kts 107°
2026-05-05 07:30 -35.26541 155.95791 39083 ft 541 kts 107°
2026-05-05 07:31 -35.28764 156.04590 39092 ft 540 kts 107°
2026-05-05 07:31 -35.30975 156.13373 39090 ft 540 kts 107°
2026-05-05 07:32 -35.33180 156.22161 39090 ft 540 kts 107°
2026-05-05 07:32 -35.35379 156.30959 39083 ft 539 kts 107°
2026-05-05 07:33 -35.37564 156.39730 39087 ft 538 kts 107°
2026-05-05 07:33 -35.39739 156.48493 39086 ft 537 kts 106°
2026-05-05 07:34 -35.41906 156.57253 39061 ft 537 kts 106°
2026-05-05 07:34 -35.44067 156.66016 39073 ft 536 kts 106°
2026-05-05 07:35 -35.46218 156.74770 39075 ft 536 kts 106°
2026-05-05 07:35 -35.48361 156.83524 39072 ft 536 kts 106°
2026-05-05 07:36 -35.50498 156.92281 39071 ft 536 kts 106°
2026-05-05 07:36 -35.52629 157.01046 39070 ft 535 kts 106°
2026-05-05 07:37 -35.54750 157.09801 39075 ft 535 kts 106°
2026-05-05 07:37 -35.56863 157.18552 39060 ft 535 kts 105°
2026-05-05 07:38 -35.58972 157.27318 39072 ft 535 kts 105°
2026-05-05 07:38 -35.61073 157.36083 39066 ft 535 kts 105°
2026-05-05 07:39 -35.63168 157.44851 39062 ft 535 kts 105°
2026-05-05 07:39 -35.65257 157.53629 39063 ft 535 kts 105°
2026-05-05 07:40 -35.67338 157.62401 39065 ft 535 kts 105°
2026-05-05 07:40 -35.69413 157.71184 39066 ft 534 kts 105°
2026-05-05 07:41 -35.71468 157.79911 39064 ft 534 kts 105°
2026-05-05 07:41 -35.73530 157.88694 39059 ft 534 kts 105°
2026-05-05 07:42 -35.75584 157.97483 39068 ft 534 kts 105°
2026-05-05 07:42 -35.77631 158.06271 39063 ft 534 kts 105°
2026-05-05 07:43 -35.79495 158.15116 39062 ft 533 kts 101°
2026-05-05 07:43 -35.80946 158.24071 39062 ft 533 kts 99°
2026-05-05 07:44 -35.82379 158.33052 39068 ft 535 kts 100°
2026-05-05 07:44 -35.83874 158.42035 39067 ft 535 kts 101°
2026-05-05 07:45 -35.85396 158.51010 39068 ft 535 kts 101°
2026-05-05 07:45 -35.86916 158.59990 39070 ft 535 kts 101°
2026-05-05 07:46 -35.88429 158.68982 39068 ft 535 kts 101°
2026-05-05 07:46 -35.89930 158.77963 39071 ft 535 kts 100°
2026-05-05 07:47 -35.91426 158.86959 39075 ft 535 kts 100°
2026-05-05 07:47 -35.92915 158.95958 39080 ft 535 kts 100°
2026-05-05 07:48 -35.94396 159.04947 39077 ft 535 kts 100°
2026-05-05 07:48 -35.95872 159.13954 39081 ft 535 kts 100°
2026-05-05 07:49 -35.97340 159.22955 39076 ft 535 kts 100°
2026-05-05 07:49 -35.98799 159.31945 39084 ft 533 kts 100°
2026-05-05 07:50 -36.00239 159.40861 39087 ft 533 kts 100°
2026-05-05 07:50 -36.01681 159.49839 39086 ft 533 kts 100°
2026-05-05 07:51 -36.03117 159.58824 39092 ft 533 kts 100°
2026-05-05 07:51 -36.04545 159.67803 39094 ft 533 kts 99°
2026-05-05 07:52 -36.05968 159.76794 39097 ft 533 kts 99°
2026-05-05 07:52 -36.07384 159.85783 39099 ft 533 kts 99°
2026-05-05 07:53 -36.08793 159.94780 39108 ft 533 kts 99°
2026-05-05 07:53 -36.10197 160.03787 39108 ft 534 kts 99°
2026-05-05 07:54 -36.11595 160.12806 39111 ft 534 kts 99°
2026-05-05 07:54 -36.12986 160.21826 39115 ft 534 kts 99°
2026-05-05 07:55 -36.14371 160.30853 39116 ft 534 kts 99°
2026-05-05 07:55 -36.15751 160.39890 39118 ft 534 kts 99°
2026-05-05 07:56 -36.17123 160.48926 39127 ft 534 kts 99°
2026-05-05 07:56 -36.18488 160.57966 39127 ft 535 kts 99°
2026-05-05 07:57 -36.19848 160.67022 39127 ft 536 kts 99°
2026-05-05 07:57 -36.21205 160.76101 39132 ft 536 kts 99°
2026-05-05 07:58 -36.22545 160.85118 39135 ft 536 kts 99°
2026-05-05 07:58 -36.23896 160.94265 39141 ft 537 kts 99°
2026-05-05 07:59 -36.25226 161.03309 39143 ft 538 kts 99°
2026-05-05 07:59 -36.26560 161.12436 39143 ft 538 kts 99°
2026-05-05 08:00 -36.27888 161.21570 39154 ft 538 kts 99°
2026-05-05 08:00 -36.29209 161.30707 39157 ft 539 kts 99°
2026-05-05 08:01 -36.30526 161.39866 39154 ft 540 kts 99°
2026-05-05 08:01 -36.31836 161.49030 39159 ft 540 kts 99°
2026-05-05 08:02 -36.33139 161.58195 39164 ft 540 kts 99°
2026-05-05 08:02 -36.34433 161.67354 39165 ft 540 kts 99°
2026-05-05 08:03 -36.35723 161.76531 39165 ft 539 kts 99°
2026-05-05 08:03 -36.37003 161.85697 39167 ft 539 kts 99°
2026-05-05 08:04 -36.38278 161.94870 39168 ft 539 kts 99°
2026-05-05 08:04 -36.39545 162.04042 39176 ft 539 kts 99°
2026-05-05 08:05 -36.40807 162.13233 39183 ft 539 kts 99°
2026-05-05 08:05 -36.42058 162.22405 39184 ft 539 kts 99°
2026-05-05 08:06 -36.43303 162.31586 39180 ft 537 kts 100°
2026-05-05 08:06 -36.44530 162.40685 39189 ft 533 kts 99°
2026-05-05 08:07 -36.45746 162.49756 39192 ft 532 kts 99°
2026-05-05 08:07 -36.46956 162.58836 39199 ft 533 kts 99°
2026-05-05 08:08 -36.48155 162.67895 39196 ft 529 kts 99°
2026-05-05 08:08 -36.49140 162.75375 39197 ft 526 kts 99°
2026-05-05 08:09 -36.50316 162.84349 39199 ft 526 kts 99°
2026-05-05 08:09 -36.51675 162.94790 39211 ft 526 kts 99°
2026-05-05 08:10 -36.52647 163.02299 39216 ft 524 kts 99°
2026-05-05 08:10 -36.53794 163.11219 39221 ft 521 kts 99°
2026-05-05 08:11 -36.54930 163.20121 39213 ft 521 kts 99°
2026-05-05 08:11 -36.56061 163.29031 39220 ft 522 kts 99°
2026-05-05 08:12 -36.57177 163.37882 39225 ft 520 kts 99°
2026-05-05 08:12 -36.58288 163.46757 39226 ft 519 kts 99°
2026-05-05 08:13 -36.59393 163.55625 39229 ft 519 kts 99°
2026-05-05 08:13 -36.60491 163.64497 39229 ft 519 kts 99°
2026-05-05 08:14 -36.61580 163.73357 39234 ft 518 kts 99°
2026-05-05 08:14 -36.62662 163.82214 39245 ft 517 kts 99°
2026-05-05 08:15 -36.63738 163.91073 39237 ft 517 kts 99°
2026-05-05 08:15 -36.64806 163.99926 39249 ft 517 kts 99°
2026-05-05 08:16 -36.65868 164.08784 39249 ft 517 kts 99°
2026-05-05 08:16 -36.66917 164.17597 39248 ft 516 kts 99°
2026-05-05 08:17 -36.67963 164.26437 39259 ft 516 kts 99°
2026-05-05 08:17 -36.69004 164.35286 39260 ft 516 kts 99°
2026-05-05 08:18 -36.70036 164.44128 39269 ft 515 kts 99°
2026-05-05 08:18 -36.71058 164.52941 39266 ft 513 kts 99°
2026-05-05 08:19 -36.72074 164.61752 39265 ft 513 kts 99°
2026-05-05 08:19 -36.73082 164.70557 39272 ft 513 kts 99°
2026-05-05 08:20 -36.74082 164.79358 39283 ft 511 kts 98°
2026-05-05 08:20 -36.75066 164.88065 39274 ft 510 kts 98°
2026-05-05 08:21 -36.76048 164.96822 39283 ft 510 kts 98°
2026-05-05 08:21 -36.77024 165.05583 39279 ft 510 kts 98°
2026-05-05 08:22 -36.77994 165.14344 39289 ft 509 kts 98°
2026-05-05 08:22 -36.78955 165.23085 39287 ft 509 kts 98°
2026-05-05 08:23 -36.79909 165.31825 39293 ft 509 kts 98°
2026-05-05 08:23 -36.80858 165.40579 39293 ft 509 kts 98°
2026-05-05 08:24 -36.81801 165.49345 39292 ft 510 kts 98°
2026-05-05 08:24 -36.82739 165.58114 39296 ft 510 kts 98°
2026-05-05 08:25 -36.83669 165.66886 39300 ft 510 kts 98°
2026-05-05 08:25 -36.84594 165.75665 39300 ft 510 kts 98°
2026-05-05 08:26 -36.85512 165.84441 39308 ft 510 kts 98°
2026-05-05 08:26 -36.86422 165.93206 39301 ft 509 kts 98°
2026-05-05 08:27 -36.87325 166.01968 39303 ft 509 kts 98°
2026-05-05 08:27 -36.88222 166.10735 39308 ft 509 kts 98°
2026-05-05 08:28 -36.89112 166.19502 39307 ft 509 kts 98°
2026-05-05 08:28 -36.89995 166.28262 39312 ft 508 kts 98°
2026-05-05 08:29 -36.90871 166.37018 39324 ft 508 kts 98°
2026-05-05 08:30 -36.92173 166.50158 39321 ft 508 kts 98°
2026-05-05 08:30 -36.93033 166.58916 39329 ft 507 kts 98°
2026-05-05 08:31 -36.93878 166.67594 39333 ft 506 kts 98°
2026-05-05 08:31 -36.94721 166.76319 39323 ft 506 kts 98°
2026-05-05 08:32 -36.95558 166.85048 39332 ft 506 kts 98°
2026-05-05 08:32 -36.96388 166.93773 39328 ft 504 kts 98°
2026-05-05 08:33 -36.97209 167.02468 39336 ft 503 kts 98°
2026-05-05 08:33 -36.98022 167.11155 39339 ft 503 kts 98°
2026-05-05 08:34 -36.98829 167.19841 39341 ft 503 kts 98°
2026-05-05 08:34 -36.99629 167.28531 39341 ft 502 kts 98°
2026-05-05 08:35 -37.00421 167.37195 39341 ft 501 kts 98°
2026-05-05 08:35 -37.01206 167.45848 39348 ft 501 kts 98°
2026-05-05 08:36 -37.01983 167.54500 39350 ft 501 kts 97°
2026-05-05 08:36 -37.02755 167.63159 39347 ft 501 kts 98°
2026-05-05 08:37 -37.03521 167.71815 39356 ft 500 kts 98°
2026-05-05 08:37 -37.04279 167.80468 39351 ft 500 kts 97°
2026-05-05 08:38 -37.05031 167.89121 39354 ft 500 kts 97°
2026-05-05 08:38 -37.05778 167.97777 39360 ft 500 kts 97°
2026-05-05 08:39 -37.06516 168.06422 39358 ft 499 kts 97°
2026-05-05 08:39 -37.07242 168.14991 39365 ft 498 kts 97°
2026-05-05 08:40 -37.07966 168.23616 39363 ft 498 kts 97°
2026-05-05 08:40 -37.08684 168.32243 39366 ft 498 kts 97°
2026-05-05 08:41 -37.09396 168.40873 39369 ft 497 kts 97°
2026-05-05 08:41 -37.10100 168.49487 39368 ft 497 kts 97°
2026-05-05 08:42 -37.10797 168.58095 39371 ft 497 kts 97°
2026-05-05 08:42 -37.11489 168.66708 39371 ft 497 kts 97°
2026-05-05 08:43 -37.12174 168.75323 39377 ft 497 kts 97°
2026-05-05 08:43 -37.12851 168.83921 39376 ft 496 kts 97°
2026-05-05 08:44 -37.13522 168.92518 39374 ft 496 kts 97°
2026-05-05 08:44 -37.14188 169.01124 39379 ft 496 kts 97°
2026-05-05 08:45 -37.14846 169.09722 39379 ft 496 kts 97°
2026-05-05 08:45 -37.15499 169.18327 39384 ft 496 kts 97°
2026-05-05 08:46 -37.16145 169.26933 39382 ft 496 kts 96°
2026-05-05 08:46 -37.16786 169.35546 39387 ft 496 kts 96°
2026-05-05 08:47 -37.17419 169.44149 39392 ft 496 kts 96°
2026-05-05 08:47 -37.18047 169.52754 39387 ft 495 kts 96°
2026-05-05 08:48 -37.18667 169.61346 39392 ft 495 kts 96°
2026-05-05 08:48 -37.19281 169.69943 39389 ft 495 kts 96°
2026-05-05 08:49 -37.19889 169.78541 39394 ft 495 kts 96°
2026-05-05 08:49 -37.20491 169.87147 39400 ft 495 kts 96°
2026-05-05 08:50 -37.21087 169.95753 39400 ft 495 kts 96°
2026-05-05 08:50 -37.21676 170.04356 39399 ft 495 kts 96°
2026-05-05 08:51 -37.22259 170.12966 39396 ft 495 kts 96°
2026-05-05 08:51 -37.22837 170.21580 39400 ft 495 kts 96°
2026-05-05 08:52 -37.23407 170.30177 39400 ft 494 kts 96°
2026-05-05 08:52 -37.23970 170.38773 39404 ft 495 kts 96°
2026-05-05 08:53 -37.24528 170.47377 39410 ft 495 kts 96°
2026-05-05 08:53 -37.25080 170.55985 39415 ft 495 kts 96°
2026-05-05 08:54 -37.25612 170.64590 39410 ft 495 kts 94°
2026-05-05 08:54 -37.25508 170.73228 39411 ft 495 kts 89°
2026-05-05 08:55 -37.25257 170.81809 39410 ft 495 kts 89°
2026-05-05 08:55 -37.25006 170.90450 39411 ft 495 kts 89°
2026-05-05 08:56 -37.24753 170.99087 39418 ft 495 kts 89°
2026-05-05 08:56 -37.24495 171.07707 39419 ft 494 kts 89°
2026-05-05 08:57 -37.24231 171.16311 39419 ft 494 kts 89°
2026-05-05 08:57 -37.24005 171.23528 39424 ft 494 kts 89°
2026-05-05 08:58 -37.23731 171.32081 39425 ft 494 kts 88°
2026-05-05 08:58 -37.23450 171.40672 39423 ft 492 kts 88°
2026-05-05 08:59 -37.23164 171.49246 39424 ft 492 kts 88°
2026-05-05 08:59 -37.22871 171.57819 39428 ft 492 kts 88°
2026-05-05 09:00 -37.22572 171.66395 39436 ft 492 kts 88°
2026-05-05 09:00 -37.22267 171.74957 39423 ft 490 kts 88°
2026-05-05 09:01 -37.21958 171.83488 39433 ft 489 kts 88°
2026-05-05 09:01 -37.21642 171.92017 39422 ft 489 kts 88°
2026-05-05 09:02 -37.21320 172.00535 39422 ft 489 kts 88°
2026-05-05 09:02 -37.20992 172.09060 39421 ft 489 kts 88°
2026-05-05 09:03 -37.20659 172.17564 39429 ft 489 kts 88°
2026-05-05 09:03 -37.20319 172.26080 39437 ft 489 kts 88°
2026-05-05 09:04 -37.19973 172.34597 39435 ft 489 kts 88°
2026-05-05 09:04 -37.19621 172.43113 39440 ft 489 kts 88°
2026-05-05 09:05 -37.19263 172.51626 39430 ft 489 kts 88°
2026-05-05 09:05 -37.18898 172.60144 39311 ft 486 kts 88°
2026-05-05 09:05 -37.18715 172.64372 38667 ft 486 kts 88°
2026-05-05 09:06 -37.18529 172.68624 37818 ft 490 kts 87°
2026-05-05 09:06 -37.18341 172.72904 37037 ft 492 kts 87°
2026-05-05 09:06 -37.18150 172.77197 36281 ft 494 kts 87°
2026-05-05 09:06 -37.17957 172.81499 35548 ft 495 kts 87°
2026-05-05 09:07 -37.17762 172.85815 34797 ft 497 kts 87°
2026-05-05 09:07 -37.17565 172.90148 33992 ft 498 kts 87°
2026-05-05 09:07 -37.17365 172.94498 33081 ft 500 kts 87°
2026-05-05 09:07 -37.17166 172.98805 32208 ft 502 kts 87°
2026-05-05 09:08 -37.16962 173.03174 31301 ft 504 kts 87°
2026-05-05 09:08 -37.16753 173.07618 30362 ft 505 kts 87°
2026-05-05 09:08 -37.16548 173.11966 29350 ft 506 kts 87°
2026-05-05 09:08 -37.16336 173.16414 28457 ft 504 kts 86°
2026-05-05 09:09 -37.16129 173.20733 27640 ft 501 kts 86°
2026-05-05 09:09 -37.15919 173.25064 26953 ft 495 kts 86°
2026-05-05 09:09 -37.15708 173.29400 26195 ft 490 kts 85°
2026-05-05 09:09 -37.15503 173.33581 25602 ft 483 kts 85°
2026-05-05 09:10 -37.15296 173.37753 24921 ft 478 kts 85°
2026-05-05 09:10 -37.15091 173.41874 24330 ft 471 kts 84°
2026-05-05 09:10 -37.14887 173.45947 23594 ft 465 kts 84°
2026-05-05 09:10 -37.14660 173.49971 22857 ft 459 kts 84°
2026-05-05 09:11 -37.14418 173.53934 22075 ft 455 kts 83°
2026-05-05 09:11 -37.14177 173.57869 21424 ft 448 kts 83°
2026-05-05 09:11 -37.13942 173.61723 20836 ft 440 kts 83°
2026-05-05 09:11 -37.13709 173.65509 20312 ft 432 kts 83°
2026-05-05 09:12 -37.13480 173.69226 19855 ft 423 kts 83°
2026-05-05 09:12 -37.13258 173.72826 19467 ft 401 kts 83°
2026-05-05 09:12 -37.13056 173.76182 19233 ft 378 kts 83°
2026-05-05 09:12 -37.12856 173.79466 19102 ft 379 kts 83°
2026-05-05 09:13 -37.12652 173.82755 19010 ft 377 kts 83°
2026-05-05 09:13 -37.12446 173.86020 18932 ft 375 kts 82°
2026-05-05 09:13 -37.12237 173.89271 18859 ft 374 kts 82°
2026-05-05 09:13 -37.12030 173.92471 18788 ft 362 kts 82°
2026-05-05 09:14 -37.11832 173.95552 18769 ft 347 kts 82°
2026-05-05 09:14 -37.11643 173.98512 18803 ft 335 kts 82°
2026-05-05 09:14 -37.11457 174.01407 18886 ft 334 kts 82°
2026-05-05 09:14 -37.11267 174.04311 18978 ft 334 kts 82°
2026-05-05 09:15 -37.11079 174.07174 19079 ft 326 kts 82°
2026-05-05 09:15 -37.10893 174.09989 19195 ft 324 kts 82°
2026-05-05 09:15 -37.10700 174.12837 19321 ft 332 kts 82°
2026-05-05 09:15 -37.10499 174.15735 19392 ft 334 kts 82°
2026-05-05 09:16 -37.10301 174.18612 19162 ft 330 kts 82°
2026-05-05 09:16 -37.10103 174.21463 18586 ft 328 kts 82°
2026-05-05 09:16 -37.09908 174.24291 17651 ft 324 kts 82°
2026-05-05 09:16 -37.09715 174.27019 16721 ft 321 kts 82°
2026-05-05 09:17 -37.09516 174.29788 15824 ft 317 kts 82°
2026-05-05 09:17 -37.09317 174.32506 15003 ft 311 kts 82°
2026-05-05 09:17 -37.09138 174.35187 14162 ft 307 kts 83°
2026-05-05 09:17 -37.08987 174.37837 13260 ft 303 kts 83°
2026-05-05 09:18 -37.08839 174.40446 12361 ft 299 kts 83°
2026-05-05 09:18 -37.08690 174.42991 11512 ft 295 kts 83°
2026-05-05 09:18 -37.08539 174.45530 10666 ft 291 kts 83°
2026-05-05 09:18 -37.08392 174.48012 10121 ft 278 kts 83°
2026-05-05 09:19 -37.08254 174.50338 9800 ft 258 kts 83°
2026-05-05 09:19 -37.08123 174.52529 9361 ft 248 kts 83°
2026-05-05 09:19 -37.07994 174.54655 8846 ft 242 kts 82°
2026-05-05 09:19 -37.07868 174.56734 8353 ft 237 kts 83°
2026-05-05 09:20 -37.07546 174.58716 7851 ft 230 kts 61°
2026-05-05 09:20 -37.06631 174.60293 7387 ft 221 kts 44°
2026-05-05 09:20 -37.05563 174.61648 6914 ft 216 kts 41°
2026-05-05 09:20 -37.04550 174.62981 6390 ft 205 kts 51°
2026-05-05 09:21 -37.04104 174.64610 6013 ft 195 kts 81°
2026-05-05 09:21 -37.04071 174.66249 5649 ft 184 kts 86°
2026-05-05 09:21 -37.04098 174.67823 5126 ft 177 kts 87°
2026-05-05 09:21 -37.03831 174.69295 4516 ft 173 kts 65°
2026-05-05 09:22 -37.03385 174.70674 3917 ft 169 kts 66°
2026-05-05 09:22 -37.03010 174.72068 3259 ft 169 kts 71°
2026-05-05 09:22 -37.02780 174.72954 2830 ft 168 kts 68°